Regional Weather Roundup
Issued by NWS

Home | Current Version | Previous Version | Graphics & Text | Print | Product List | Glossary On
Versions: 1 2 3 4 5 6 7 8 9 10 11 12 13 14 15 16 17 18 19 20 21 22 23 24 25 26 27 28 29 30 31 32 33 34 35 36 37 38 39 40 41 42 43 44 45 46 47 48 49 50
000
ASUS43 KMPX 022001
RWRMN
WEATHER ROUNDUP FOR MINNESOTA
NATIONAL WEATHER SERVICE TWIN CITIES/CHANHASSEN MN
300 PM CDT SAT MAY 02 2015


NOTE: "FAIR" INDICATES FEW OR NO CLOUDS BELOW 12,000 FEET WITH NO
SIGNIFICANT WEATHER AND/OR OBSTRUCTIONS TO VISIBILITY. N/A MEANS
CURRENT SKY AND/OR WEATHER CONDITIONS ARE NOT AVAILABLE.

MNZ060>063-068>070-022100-
   Twin Cities Metro

CITY           SKY/WX    TMP DP  RH WIND       PRES   REMARKS
TWIN CITIES    MOSUNNY   78  44  29 SW14      29.82F
ST PAUL        MOSUNNY   79  44  28 SW9       29.82F
CRYSTAL        SUNNY     80  43  26 SW14      29.80F
BLAINE         MOSUNNY   81  45  28 SW6G18    29.82F
LAKEVILLE      MOSUNNY   79  46  31 S10G17    29.81F
EDEN PRAIRIE   MOSUNNY   79  47  32 S9        29.80F
SOUTH ST PAUL  MOSUNNY   80  42  26 S10       29.81F
LAKE ELMO      FAIR      79  45  29 S12       29.83F
$$
MNZ001>005-007-008-013>017-022>024-027-028-022100-
   Northwest Minnesota

CITY           SKY/WX    TMP DP  RH WIND       PRES   REMARKS
BEMIDJI        SUNNY     80  37  21 SW14      29.72F
HALLOCK        PTSUNNY   86  18   8 SW25G35   29.54F
ROSEAU         PTSUNNY   82  30  15 S21G28    29.60F
WARROAD        PTSUNNY   81  43  26 S15G25    29.62F
THIEF RVR FALL PTSUNNY   82  34  17 S20G29    29.64F
CROOKSTON      MOSUNNY   84  36  17 SW21G36   29.62F
MOORHEAD       SUNNY     82  34  17 S20G28    29.67F
PARK RAPIDS    SUNNY     81  34  18 S16G26    29.75F
MAHNOMEN       FAIR      80  37  21 S17G28    29.70F
$$
MNZ006-009>011-018-025>026-022100-
   North Central Minnesota

CITY           SKY/WX    TMP DP  RH WIND       PRES   REMARKS
BAUDETTE       PTSUNNY   79  34  19 SW15G25   29.65F
FLAG ISLAND    CLOUDY    63  39  42 SE13      29.61F
INTL FALLS     MOSUNNY   80  32  17 W13G21    29.69F
WASKISH        PTSUNNY   79  41  25 SW9       29.69F
BIG FORK       MOSUNNY   82  34  17 S21G26    29.73F
LONGVILLE      SUNNY     79  36  21 SW8       29.76F
GRAND RAPIDS   SUNNY     77  37  24 SW10G20   29.77F
CRANE LAKE     MOSUNNY   75  30  19 S8        29.73F
ORR            MOSUNNY   77  27  15 SW9G20    29.71F
COOK           MOSUNNY   77  37  24 SW12G22   29.74F
WALKER         FAIR      78  37  22 SW13G20   29.75F
$$
MNZ012-019>021-037-022100-
   Northeast Minnesota

CITY           SKY/WX    TMP DP  RH WIND       PRES   REMARKS
DULUTH         MOSUNNY   77  37  23 S14       29.80F
ELY            MOSUNNY   75  34  22 S13G20    29.76F
HIBBING        MOSUNNY   79  34  19 SW9G23    29.76F
EVELETH        SUNNY     77  34  20 S16G23    29.78F
DULUTH HARBOR  SUNNY     43  37  81 N3        29.83F
TWO HARBORS    SUNNY     73  52  46 SE6       29.80F
SILVER BAY     MOSUNNY   70  48  46 SE7       29.80F
GRAND MARAIS     N/A     45  35  68 E5        29.84F
G MARAIS ARPRT SUNNY     64  43  45 S8G17     29.86F
$$
MNZ029>031-032-039>041-046>048-054>057-064-022100-
   West Central Minnesota

CITY           SKY/WX    TMP DP  RH WIND       PRES   REMARKS
FERGUS FALLS   SUNNY     81  39  22 S17G24    29.72F
WHEATON        SUNNY     81  37  21 SE12G23   29.72F
MORRIS         SUNNY     82  39  21 S12G22    29.74F
ALEXANDRIA     SUNNY     77  40  26 S12G22    29.79F
ELBOW LAKE     FAIR      79  40  25 SW14      29.75F
WADENA         SUNNY     77  41  27 S16       29.77F
GLENWOOD       SUNNY     79  41  25 S12G17    29.80F
APPLETON       SUNNY     84  32  15 S12G17    29.75F
BENSON         SUNNY     81  32  17 W8G16     29.76F
ORTONVILLE     SUNNY     82  39  21 SW6       29.73F
MADISON        MOSUNNY   82  36  18 W10G16    29.74F
WILLMAR          N/A     81  43  26 S5        29.79F
$$
MNZ033>034-036-042>043-049>051-058-059-022100-
   Central Minnesota

CITY           SKY/WX    TMP DP  RH WIND       PRES   REMARKS
ST CLOUD       MOSUNNY   78  43  28 S10       29.79F
SAUK CENTRE    FAIR      77  42  28 S15G24    29.79F
PAYNESVILLE    MOSUNNY   76  43  30 SE12G17   29.80F
AITKIN         SUNNY     81  25  12 S17G23    29.77F
PINE RIVER     SUNNY     79  45  29 S12G20    29.80F
BRAINERD       SUNNY     78  36  21 SW14G26   29.78F
STAPLES        SUNNY     79  32  18 S13G22    29.78S
LONG PRAIRIE   FAIR      77  43  29 S15G24    29.80F
LITTLE FALLS   SUNNY     77  36  22 SW9G17    29.79F
LITCHFIELD     SUNNY     79  39  24 S6        29.81F
BUFFALO        MOSUNNY   78  40  25 S8        29.81F
MAPLE LAKE     SUNNY     80  45  28 S8        29.82F
$$
MNZ037-044-045-052-053-022100-
   East Central Minnesota

CITY           SKY/WX    TMP DP  RH WIND       PRES   REMARKS
PRINCETON      MOSUNNY   81  45  28 S14       29.81F
MORA           SUNNY     75  37  25 S12       29.83F
CAMBRIDGE      MOSUNNY   79  54  41 S8G16     29.80F
RUSH CITY      MOSUNNY   76  41  29 S10G17    29.82F
MOOSE LAKE     MOSUNNY   77  39  25 SW13G18   29.79F
HINCKLEY       FAIR      79  39  24 S13       29.82F
CLOQUET        MOSUNNY   77  30  18 SW13G18   29.80F
MCGREGOR       SUNNY     77  36  22 S12G21    29.80F
$$
MNZ071>073-080-081-089-090-097-098-022100-
   Southwest Minnesota

CITY           SKY/WX    TMP DP  RH WIND       PRES   REMARKS
MONTEVIDEO     SUNNY     84  41  21 W8        29.77F
GRANITE FALLS  SUNNY     81  38  21 E3        29.78F
CANBY          MOSUNNY   82  41  23 SW12G18   29.76F
MARSHALL       SUNNY     81  43  26 SW14G21   29.77F
REDWOOD FALLS  SUNNY     81  38  21 SW13      29.78F
OLIVIA         SUNNY     77  37  24 S7G17     29.79F
WINDOM         SUNNY     81  41  24 SW13G20   29.81F
WORTHINGTON    MOSUNNY   79  46  31 S21G26    29.82F
JACKSON        SUNNY     79  45  29 S15G21    29.83F
TRACY          MOSUNNY   81  42  25 S12       29.79F
SLAYTON        MOSUNNY   79  43  27 SW17      29.81F
$$
MNZ065>067-074>077-082>085-091>093-022100-
   South Central Minnesota

CITY           SKY/WX    TMP DP  RH WIND       PRES   REMARKS
MANKATO        MOSUNNY   77  46  33 SW17      29.82F
NEW ULM        SUNNY     79  45  29 S7        29.80F
ST JAMES       SUNNY     81  36  19 SW7       29.81F
FAIRMONT       SUNNY     79  19  11 SW14G21   29.82F
GLENCOE        MOSUNNY   79  47  32 S5        29.80F
FARIBAULT      MOSUNNY   79  46  31 S9G16     29.83F
OWATONNA       SUNNY     79  43  27 S16G23    29.84S
WASECA         SUNNY     77  45  31 SW16G23   29.85F
ALBERT LEA     SUNNY     77  41  27 SW14G21   29.84F
$$
MNZ078>079-086>088-094>096-022100-
   Southeast Minnesota

CITY           SKY/WX    TMP DP  RH WIND       PRES   REMARKS
ROCHESTER      SUNNY     77  44  30 S20G28    29.87F
RED WING       MOSUNNY   81  39  22 S12G18    29.82F
STANTON        MOSUNNY   79  41  25 S12G22    29.81F
DODGE CENTER   SUNNY     75  45  33 SW18G24   29.85F
WINONA         MOSUNNY   79  43  27 SW10G23   29.86F
AUSTIN         SUNNY     75  45  33 SW21      29.85F
PRESTON        MOSUNNY   75  44  32 S18G30    29.88F
$$
ABBREVIATIONS USED IN REMARKS
   TC - TEMPERATURES IN CELSIUS
  WCI - WIND CHILL INDEX
   HX - HEAT INDEX
  VSB - VISIBILITY
$$


USA.gov is the U.S. government's official web portal to all federal, state and local government web resources and services.